This demonstration page uses our WeatherBlox Daily Observations layout. Learn more.

Left ArrowRight Arrow

Hourly Observations for July 6, 2017

Temp ( °F °C ) Dew Point ( °F °C ) Humidity (%) Winds ( mph kmh ) Pressure ( in mb ) Visibility ( mi km ) Precip ( " mm )
12:53 am 00:53 Clear 72 22.2 50 10 46 46 Calm 29.98 1015 10 16 0.00 0.00
1:53 am 01:53 Clear 70 21.1 48 8.9 46 46 NNW 3 6 29.98 1015 10 16 0.00 0.00
2:53 am 02:53 Clear 68 20 50 10 53 53 Calm 29.99 1016 10 16 0.00 0.00
3:53 am 03:53 Clear 70 21.1 49 9.4 47 47 NNW 6 9 29.99 1016 10 16 0.00 0.00
4:53 am 04:53 Clear 67 19.4 50 10 55 55 Calm 30.00 1016 10 16 0.00 0.00
5:53 am 05:53 Sunny 68 20 50 10 53 53 NW 6 9 30.00 1016 10 16 0.00 0.00
6:53 am 06:53 Sunny 71 21.7 51 10.6 49 49 NNW 5 7 30.01 1016 10 16 0.00 0.00
7:53 am 07:53 Sunny 76 24.4 50 10 40 40 NW 5 7 30.02 1017 10 16 0.00 0.00
8:53 am 08:53 Sunny 81 27.2 48 8.9 32 32 Calm 30.03 1017 10 16 0.00 0.00
9:53 am 09:53 Sunny 86 30 47 8.3 26 26 WNW 3 6 30.02 1017 10 16 0.00 0.00
10:53 am 10:53 Sunny 93 33.9 47 8.3 21 21 VRB 3 6 30.01 1016 10 16 0.00 0.00
11:53 am 11:53 Sunny 96 35.6 41 5 15 15 VRB 6 9 30.00 1016 10 16 0.00 0.00
12:53 pm 12:53 Sunny 99 37.2 39 3.9 12 12 SW 7 11 29.99 1016 10 16 0.00 0.00
1:53 pm 13:53 Sunny 99 37.2 35 1.7 11 11 SE 6 9 29.97 1015 10 16 0.00 0.00
2:53 pm 14:53 Sunny 102 38.9 35 1.7 10 10 NW 5 7 29.95 1014 10 16 0.00 0.00
3:53 pm 15:53 Sunny 104 40 36 2.2 9 9 SSW 5 7 29.93 1014 10 16 0.00 0.00
4:53 pm 16:53 Sunny 105 40.6 35 1.7 9 9 SE 5 7 29.91 1013 10 16 0.00 0.00
5:53 pm 17:53 Sunny 104 40 35 1.7 9 9 Calm 29.90 1012 10 16 0.00 0.00
6:53 pm 18:53 Sunny 104 40 33 0.6 8 8 Calm 29.89 1012 10 16 0.00 0.00
7:53 pm 19:53 Sunny 101 38.3 34 1.1 10 10 SE 3 6 29.88 1012 10 16 0.00 0.00
8:53 pm 20:53 Clear 93 33.9 44 6.7 18 18 SE 5 7 29.90 1012 10 16 0.00 0.00
9:53 pm 21:53 Clear 88 31.1 46 7.8 23 23 Calm 29.92 1013 10 16 0.00 0.00
10:53 pm 22:53 Clear 83 28.3 47 8.3 28 28 Calm 29.93 1014 10 16 0.00 0.00
11:53 pm 23:53 Clear 80 26.7 50 10 35 35 N 3 6 29.94 1014 10 16 0.00 0.00

Powered by AerisWeather